Location: Palmerston North
(40.3500°S, 175.6170°E)
Time: 01:49:58
(UTC+13:00)

Cosmos 1356 - Pass Details

Date: 24 January 2019
Orbit: 448 x 452 km, 81.1° (Epoch: 18 February)

Event Time Altitude Azimuth Distance (km) Brightness Sun altitude
Exits shadow 22:12:24 29° 65° (ENE) 867 4.3 -14.8°
Maximum altitude 22:13:00 31° 87° (E) 827 4.3 -14.9°
Drops below altitude 10° 22:16:09 10° 150° (SSE) 1,613 6.4 -15.4°
Sets 22:18:23 0° 160° (SSE) 2,497 7.5 -15.7°
